• In Deutschland
  • Länderverzeichnis
  • Für 7 Tage
  • Wassertemperatur
  • Satellitenkarten
  • Wetterkarte
  • Widgets
  • user-avatar
    Anmelden

    Stündliche Wetter Schwandorf in Bayern

    Heute, 18 Dezember, Montag

    Zeit Temperatur Niederschläge Wind Luftdruck Luftfeuchtigkeit
    00:00 -2°C° 0,1 mm 3 m/S 734 mmHg 91%
    01:00 -2°C° 0 mm 2 m/S 734 mmHg 90%
    02:00 -2°C° 0 mm 2 m/S 733 mmHg 91%
    03:00 -2°C° 0 mm 2 m/S 733 mmHg 92%
    04:00 -1°C° 0 mm 1 m/S 733 mmHg 93%
    05:00 -1°C° 0 mm 1 m/S 733 mmHg 92%
    06:00 -1°C° 0 mm 1 m/S 733 mmHg 92%
    07:00 0°C° 0 mm 1 m/S 732 mmHg 91%
    08:00 0°C° 0 mm 1 m/S 732 mmHg 89%
    09:00 0°C° 0 mm 1 m/S 733 mmHg 87%
    10:00 +1°C° 0 mm 1 m/S 733 mmHg 85%
    11:00 +1°C° 0 mm 1 m/S 733 mmHg 81%
    12:00 +2°C° 0 mm 1 m/S 733 mmHg 77%
    13:00 +2°C° 0 mm 1 m/S 733 mmHg 74%
    14:00 +2°C° 0 mm 1 m/S 733 mmHg 77%
    15:00 +1°C° 0 mm 1 m/S 733 mmHg 79%
    16:00 0°C° 0 mm 1 m/S 734 mmHg 82%
    17:00 0°C° 0 mm 1 m/S 734 mmHg 83%
    18:00 -2°C° 0 mm 0 m/S 735 mmHg 85%
    19:00 -2°C° 0 mm 0 m/S 735 mmHg 86%
    20:00 -3°C° 0 mm 0 m/S 735 mmHg 87%
    21:00 -3°C° 0 mm 0 m/S 736 mmHg 87%
    22:00 -3°C° 0 mm 0 m/S 736 mmHg 88%
    23:00 -3°C° 0 mm 0 m/S 736 mmHg 88%

    Morgen, 19 Dezember, Dienstag

    Zeit Temperatur Niederschläge Wind Luftdruck Luftfeuchtigkeit
    00:00 -3°C° 0 mm 0 m/S 737 mmHg 88%
    01:00 -3°C° 0 mm 0 m/S 737 mmHg 88%
    02:00 -4°C° 0 mm 0 m/S 737 mmHg 88%
    03:00 -4°C° 0 mm 0 m/S 737 mmHg 88%
    04:00 -4°C° 0 mm 0 m/S 738 mmHg 89%
    05:00 -4°C° 0 mm 0 m/S 738 mmHg 89%
    06:00 -4°C° 0 mm 0 m/S 738 mmHg 89%
    07:00 -4°C° 0 mm 0 m/S 739 mmHg 90%
    08:00 -3°C° 0 mm 0 m/S 739 mmHg 87%
    09:00 -2°C° 0 mm 0 m/S 739 mmHg 85%
    10:00 -2°C° 0 mm 0 m/S 740 mmHg 82%
    11:00 0°C° 0 mm 1 m/S 740 mmHg 79%
    12:00 +1°C° 0 mm 1 m/S 740 mmHg 76%
    13:00 +2°C° 0 mm 1 m/S 740 mmHg 73%
    14:00 +1°C° 0 mm 1 m/S 740 mmHg 77%
    15:00 +1°C° 0 mm 1 m/S 739 mmHg 81%
    16:00 0°C° 0 mm 1 m/S 739 mmHg 84%
    17:00 0°C° 0 mm 1 m/S 740 mmHg 86%
    18:00 0°C° 0 mm 1 m/S 740 mmHg 87%
    19:00 0°C° 0 mm 1 m/S 740 mmHg 89%
    20:00 -2°C° 0,1 mm 2 m/S 740 mmHg 90%
    21:00 -2°C° 0,1 mm 2 m/S 740 mmHg 91%
    22:00 -1°C° 0,1 mm 2 m/S 740 mmHg 92%
    23:00 -1°C° 0,3 mm 2 m/S 740 mmHg 93%

    übermorgen, 20 Dezember, Mittwoch

    Zeit Temperatur Niederschläge Wind Luftdruck Luftfeuchtigkeit
    00:00 -1°C° 0,3 mm 2 m/S 739 mmHg 93%
    01:00 -1°C° 0,3 mm 3 m/S 739 mmHg 93%
    02:00 -1°C° 0,2 mm 2 m/S 739 mmHg 94%
    03:00 -1°C° 0,2 mm 2 m/S 739 mmHg 94%
    04:00 -1°C° 0,2 mm 2 m/S 738 mmHg 95%
    05:00 -1°C° 0,1 mm 2 m/S 738 mmHg 95%
    06:00 -1°C° 0,1 mm 2 m/S 738 mmHg 95%
    07:00 +1°C° 0,1 mm 2 m/S 738 mmHg 96%
    08:00 +1°C° 0,1 mm 2 m/S 738 mmHg 96%
    09:00 +1°C° 0,1 mm 2 m/S 738 mmHg 95%
    10:00 +1°C° 0,1 mm 2 m/S 738 mmHg 95%
    11:00 +1°C° 0,1 mm 2 m/S 738 mmHg 95%
    12:00 +2°C° 0,1 mm 2 m/S 737 mmHg 94%
    13:00 +2°C° 0,1 mm 2 m/S 737 mmHg 94%
    14:00 +3°C° 0 mm 1 m/S 737 mmHg 95%
    15:00 +3°C° 0 mm 1 m/S 737 mmHg 96%
    16:00 +2°C° 0 mm 1 m/S 737 mmHg 97%
    17:00 +2°C° 0 mm 1 m/S 737 mmHg 97%
    18:00 +2°C° 0 mm 1 m/S 737 mmHg 97%
    19:00 +2°C° 0 mm 1 m/S 738 mmHg 98%
    20:00 +2°C° 0 mm 1 m/S 738 mmHg 97%
    21:00 +2°C° 0 mm 1 m/S 738 mmHg 97%
    22:00 +2°C° 0 mm 1 m/S 738 mmHg 97%
    23:00 +2°C° 0,1 mm 1 m/S 738 mmHg 98%

    21 Dezember, Donnerstag

    Zeit Temperatur Niederschläge Wind Luftdruck Luftfeuchtigkeit
    00:00 +2°C° 0,1 mm 1 m/S 738 mmHg 98%
    01:00 +2°C° 0,1 mm 1 m/S 738 mmHg 98%
    02:00 +2°C° 0,3 mm 1 m/S 738 mmHg 98%
    03:00 +2°C° 0,3 mm 1 m/S 738 mmHg 98%
    04:00 +3°C° 0,3 mm 1 m/S 738 mmHg 98%
    05:00 +3°C° 0,4 mm 1 m/S 738 mmHg 98%
    06:00 +3°C° 0,4 mm 1 m/S 738 mmHg 98%
    07:00 +3°C° 0,4 mm 1 m/S 738 mmHg 98%
    08:00 +3°C° 0,2 mm 2 m/S 738 mmHg 98%
    09:00 +3°C° 0,2 mm 2 m/S 738 mmHg 98%
    10:00 +3°C° 0,2 mm 2 m/S 738 mmHg 98%
    11:00 +4°C° 0,8 mm 2 m/S 737 mmHg 98%
    12:00 +3°C° 0,8 mm 3 m/S 737 mmHg 98%
    13:00 +3°C° 0,8 mm 3 m/S 737 mmHg 97%
    14:00 +3°C° 1 mm 3 m/S 737 mmHg 97%
    15:00 +3°C° 1 mm 3 m/S 736 mmHg 97%
    16:00 +4°C° 1 mm 3 m/S 736 mmHg 97%
    17:00 +4°C° 1,1 mm 2 m/S 736 mmHg 97%
    18:00 +4°C° 1,1 mm 2 m/S 737 mmHg 98%
    19:00 +4°C° 1,1 mm 2 m/S 737 mmHg 98%
    20:00 +5°C° 0,4 mm 1 m/S 737 mmHg 98%
    21:00 +4°C° 0,4 mm 1 m/S 738 mmHg 98%
    22:00 +4°C° 0,4 mm 1 m/S 738 mmHg 98%
    23:00 +4°C° 0 mm 1 m/S 738 mmHg 98%

    22 Dezember, Freitag

    Zeit Temperatur Niederschläge Wind Luftdruck Luftfeuchtigkeit
    00:00 +3°C° 0 mm 1 m/S 738 mmHg 97%
    01:00 +3°C° 0 mm 1 m/S 738 mmHg 97%
    02:00 +3°C° 0 mm 1 m/S 739 mmHg 97%
    03:00 +2°C° 0 mm 2 m/S 739 mmHg 97%
    04:00 +2°C° 0 mm 2 m/S 739 mmHg 97%
    05:00 +2°C° 0 mm 2 m/S 739 mmHg 97%
    06:00 +2°C° 0 mm 2 m/S 739 mmHg 96%
    07:00 +2°C° 0 mm 2 m/S 739 mmHg 96%
    08:00 +2°C° 0 mm 2 m/S 739 mmHg 95%
    09:00 +2°C° 0 mm 3 m/S 739 mmHg 94%
    10:00 +2°C° 0 mm 3 m/S 740 mmHg 93%
    11:00 +2°C° 0 mm 3 m/S 740 mmHg 92%
    12:00 +2°C° 0 mm 3 m/S 739 mmHg 91%
    13:00 +2°C° 0 mm 3 m/S 739 mmHg 90%
    14:00 +2°C° 0 mm 3 m/S 739 mmHg 90%
    15:00 +3°C° 0 mm 2 m/S 739 mmHg 90%
    16:00 +3°C° 0 mm 2 m/S 739 mmHg 90%
    17:00 +2°C° 0 mm 2 m/S 740 mmHg 91%
    18:00 +2°C° 0 mm 2 m/S 740 mmHg 91%
    19:00 +1°C° 0 mm 2 m/S 740 mmHg 91%
    20:00 +1°C° 0 mm 2 m/S 740 mmHg 92%
    21:00 +1°C° 0 mm 2 m/S 740 mmHg 92%
    22:00 +1°C° 0 mm 2 m/S 740 mmHg 93%
    23:00 0°C° 0,1 mm 3 m/S 739 mmHg 93%

    23 Dezember, Samstag

    Zeit Temperatur Niederschläge Wind Luftdruck Luftfeuchtigkeit
    00:00 0°C° 0,1 mm 3 m/S 739 mmHg 93%
    01:00 0°C° 0,1 mm 3 m/S 739 mmHg 92%
    02:00 -1°C° 0,1 mm 4 m/S 738 mmHg 92%
    03:00 -1°C° 0,1 mm 4 m/S 738 mmHg 91%
    04:00 -1°C° 0,1 mm 4 m/S 738 mmHg 91%
    05:00 0°C° 0,2 mm 4 m/S 738 mmHg 91%
    06:00 0°C° 0,2 mm 4 m/S 738 mmHg 91%
    07:00 0°C° 0,2 mm 4 m/S 738 mmHg 91%
    08:00 0°C° 0,3 mm 4 m/S 738 mmHg 91%
    09:00 0°C° 0,3 mm 4 m/S 738 mmHg 91%
    10:00 +1°C° 0,3 mm 4 m/S 738 mmHg 92%
    11:00 +1°C° 0,2 mm 4 m/S 738 mmHg 92%
    12:00 +1°C° 0,2 mm 4 m/S 738 mmHg 92%
    13:00 +1°C° 0,2 mm 4 m/S 738 mmHg 92%
    14:00 +1°C° 0,1 mm 4 m/S 738 mmHg 92%
    15:00 +1°C° 0,1 mm 4 m/S 738 mmHg 93%
    16:00 +2°C° 0,1 mm 3 m/S 738 mmHg 94%
    17:00 +2°C° 0,1 mm 3 m/S 738 mmHg 94%
    18:00 +2°C° 0,1 mm 3 m/S 739 mmHg 95%
    19:00 +3°C° 0,1 mm 2 m/S 739 mmHg 96%
    20:00 +2°C° 0 mm 2 m/S 739 mmHg 96%
    21:00 +2°C° 0 mm 2 m/S 738 mmHg 97%
    22:00 +2°C° 0 mm 2 m/S 738 mmHg 97%
    23:00 +2°C° 0 mm 2 m/S 738 mmHg 97%
    Mehr zeigen